| time (UTC) | temp F | wind direction | speed MPH | gust MPH | rain 1hr in | rain 24hr in | rain mn in | humidity % | barometer mb |
| 20260504050532 | 42 | 253 | 0.0 | 0.0 | 0.00 | 0.00 | 0.00 | 65 | 1009.6 |
| 20260504045537 | 42 | 270 | 0.0 | 1.0 | 0.00 | 0.00 | 0.00 | 65 | 1009.7 |
| 20260504045032 | 42 | 139 | 0.0 | 1.0 | 0.00 | 0.00 | 0.00 | 65 | 1009.8 |
| 20260504044533 | 42 | 178 | 0.0 | 0.0 | 0.00 | 0.00 | 0.00 | 66 | 1009.8 |
| 20260504044035 | 41 | 258 | 0.0 | 0.0 | 0.00 | 0.00 | 0.00 | 67 | 1009.7 |
| 20260504043531 | 41 | 251 | 0.0 | 0.0 | 0.00 | 0.00 | 0.00 | 68 | 1009.7 |
| 20260504043031 | 42 | 251 | 0.0 | 0.0 | 0.00 | 0.00 | 0.00 | 67 | 1009.7 |
| 20260504042530 | 42 | 257 | 0.0 | 0.0 | 0.00 | 0.00 | 0.00 | 68 | 1009.6 |
| 20260504042031 | 42 | 257 | 0.0 | 0.0 | 0.00 | 0.00 | 0.00 | 67 | 1009.6 |
| 20260504041530 | 42 | 255 | 0.0 | 0.0 | 0.00 | 0.00 | 0.00 | 67 | 1009.6 |
| 20260504041029 | 42 | 253 | 0.0 | 0.0 | 0.00 | 0.00 | 0.00 | 66 | 1009.5 |
| 20260504040529 | 42 | 253 | 0.0 | 0.0 | 0.00 | 0.00 | 0.00 | 66 | 1009.6 |
| 20260504035529 | 42 | 209 | 0.0 | 0.0 | 0.00 | 0.00 | 0.00 | 66 | 1009.6 |
| 20260504035028 | 42 | 275 | 0.0 | 0.0 | 0.00 | 0.00 | 0.00 | 65 | 1009.5 |
| 20260504034528 | 43 | 275 | 0.0 | 0.0 | 0.00 | 0.00 | 0.00 | 65 | 1009.4 |
| 20260504034029 | 43 | 245 | 0.0 | 0.0 | 0.00 | 0.00 | 0.00 | 65 | 1009.3 |
| 20260504033527 | 43 | 245 | 0.0 | 0.0 | 0.00 | 0.00 | 0.00 | 65 | 1009.3 |
| 20260504033029 | 42 | 243 | 0.0 | 0.0 | 0.00 | 0.00 | 0.00 | 65 | 1009.3 |
| 20260504032527 | 42 | 272 | 0.0 | 0.0 | 0.00 | 0.00 | 0.00 | 67 | 1009.3 |
| 20260504032025 | 41 | 264 | 0.0 | 0.0 | 0.00 | 0.00 | 0.00 | 68 | 1009.2 |
| 20260504031528 | 41 | 308 | 0.0 | 0.0 | 0.00 | 0.00 | 0.00 | 68 | 1009.2 |
| 20260504031026 | 41 | 330 | 0.0 | 0.0 | 0.00 | 0.00 | 0.00 | 69 | 1009.1 |
| 20260504030524 | 41 | 330 | 0.0 | 0.0 | 0.00 | 0.00 | 0.00 | 69 | 1009.1 |
| 20260504025524 | 41 | 330 | 0.0 | 0.0 | 0.00 | 0.00 | 0.00 | 68 | 1009.0 |
| 20260504025024 | 41 | 330 | 0.0 | 0.0 | 0.00 | 0.00 | 0.00 | 69 | 1009.1 |
| 20260504024523 | 41 | 332 | 0.0 | 0.0 | 0.00 | 0.00 | 0.00 | 68 | 1009.1 |
| 20260504024022 | 41 | 332 | 0.0 | 0.0 | 0.00 | 0.00 | 0.00 | 68 | 1009.0 |
| 20260504023522 | 41 | 332 | 0.0 | 0.0 | 0.00 | 0.00 | 0.00 | 67 | 1009.0 |
| 20260504023022 | 41 | 332 | 0.0 | 0.0 | 0.00 | 0.00 | 0.00 | 67 | 1009.0 |
| 20260504022523 | 41 | 332 | 0.0 | 0.0 | 0.00 | 0.00 | 0.00 | 67 | 1009.0 |
| 20260504022019 | 42 | 250 | 0.0 | 0.0 | 0.00 | 0.00 | 0.00 | 66 | 1009.0 |
| 20260504021520 | 42 | 250 | 0.0 | 0.0 | 0.00 | 0.00 | 0.00 | 66 | 1008.9 |
| 20260504021019 | 42 | 250 | 0.0 | 0.0 | 0.00 | 0.00 | 0.00 | 65 | 1009.0 |
| 20260504020519 | 42 | 250 | 0.0 | 0.0 | 0.00 | 0.00 | 0.00 | 65 | 1009.0 |
| 20260504015518 | 42 | 250 | 0.0 | 0.0 | 0.00 | 0.00 | 0.00 | 64 | 1009.0 |
| 20260504015026 | 43 | 250 | 0.0 | 0.0 | 0.00 | 0.00 | 0.00 | 62 | 1009.0 |
| 20260504014528 | 43 | 250 | 0.0 | 0.0 | 0.00 | 0.00 | 0.00 | 61 | 1008.9 |
| 20260504014015 | 43 | 250 | 0.0 | 0.0 | 0.00 | 0.00 | 0.00 | 59 | 1008.8 |
| 20260504013513 | 44 | 250 | 0.0 | 0.0 | 0.00 | 0.00 | 0.00 | 58 | 1008.8 |
| 20260504013014 | 44 | 250 | 0.0 | 0.0 | 0.00 | 0.00 | 0.00 | 57 | 1008.7 |
| 20260504012515 | 44 | 250 | 0.0 | 0.0 | 0.00 | 0.00 | 0.00 | 57 | 1008.6 |
| 20260504012011 | 44 | 263 | 0.0 | 0.0 | 0.00 | 0.00 | 0.00 | 56 | 1008.6 |
| 20260504011509 | 44 | 263 | 0.0 | 0.0 | 0.00 | 0.00 | 0.00 | 54 | 1008.5 |
| 20260504011010 | 45 | 263 | 0.0 | 0.0 | 0.00 | 0.00 | 0.00 | 54 | 1008.4 |
| 20260504010513 | 45 | 263 | 0.0 | 0.0 | 0.00 | 0.00 | 0.00 | 52 | 1008.3 |
| 20260504005505 | 46 | 263 | 0.0 | 0.0 | 0.00 | 0.00 | 0.00 | 51 | 1008.2 |
| 20260504005003 | 47 | 263 | 0.0 | 0.0 | 0.00 | 0.00 | 0.00 | 50 | 1008.1 |
| 20260504004504 | 48 | 263 | 0.0 | 0.0 | 0.00 | 0.00 | 0.00 | 48 | 1008.0 |
| 20260504004103 | 48 | 263 | 0.0 | 0.0 | 0.00 | 0.00 | 0.00 | 47 | 1008.0 |
| 20260504003600 | 49 | 263 | 0.0 | 0.0 | 0.00 | 0.00 | 0.00 | 47 | 1008.0 |
| 20260504003100 | 49 | 263 | 0.0 | 0.0 | 0.00 | 0.00 | 0.00 | 45 | 1007.9 |
| 20260504002558 | 50 | 263 | 0.0 | 0.0 | 0.00 | 0.00 | 0.00 | 43 | 1007.9 |
| 20260504002058 | 50 | 263 | 0.0 | 0.0 | 0.00 | 0.00 | 0.00 | 43 | 1007.8 |
| 20260504001603 | 50 | 235 | 0.0 | 0.0 | 0.00 | 0.00 | 0.00 | 42 | 1007.8 |
| 20260504001058 | 50 | 238 | 0.0 | 0.0 | 0.00 | 0.00 | 0.00 | 42 | 1007.7 |
| 20260504000558 | 50 | 238 | 0.0 | 0.0 | 0.00 | 0.00 | 0.00 | 41 | 1007.7 |
| 20260504000159 | 51 | 221 | 0.0 | 0.0 | 0.00 | 0.00 | 0.00 | 42 | 1007.6 |
| 20260503235601 | 51 | 244 | 0.0 | 0.0 | 0.00 | 0.00 | 0.00 | 41 | 1007.6 |
| 20260503235057 | 51 | 237 | 0.0 | 0.0 | 0.00 | 0.00 | 0.00 | 41 | 1007.5 |
| 20260503234556 | 51 | 229 | 0.0 | 0.0 | 0.00 | 0.00 | 0.00 | 41 | 1007.5 |
| 20260503234100 | 51 | 63 | 0.0 | 0.0 | 0.00 | 0.00 | 0.00 | 40 | 1007.4 |
| 20260503233555 | 51 | 287 | 0.0 | 0.0 | 0.00 | 0.00 | 0.00 | 39 | 1007.4 |
| 20260503233102 | 52 | 254 | 0.0 | 0.0 | 0.00 | 0.00 | 0.00 | 40 | 1007.3 |
| 20260503232554 | 52 | 224 | 0.0 | 0.0 | 0.00 | 0.00 | 0.00 | 39 | 1007.3 |
| 20260503232053 | 52 | 229 | 0.0 | 0.0 | 0.00 | 0.00 | 0.00 | 39 | 1007.2 |
| 20260503231553 | 52 | 259 | 0.0 | 1.0 | 0.00 | 0.00 | 0.00 | 39 | 1007.1 |
| 20260503231051 | 52 | 250 | 0.0 | 1.0 | 0.00 | 0.00 | 0.00 | 38 | 1007.0 |
| 20260503230551 | 53 | 247 | 0.0 | 0.0 | 0.00 | 0.00 | 0.00 | 40 | 1007.0 |
| 20260503230152 | 53 | 226 | 0.0 | 1.0 | 0.00 | 0.00 | 0.00 | 38 | 1006.8 |
| 20260503225554 | 53 | 224 | 0.0 | 3.0 | 0.00 | 0.00 | 0.00 | 39 | 1006.8 |
| 20260503225051 | 53 | 231 | 0.0 | 3.0 | 0.00 | 0.00 | 0.00 | 38 | 1006.7 |
| 20260503224551 | 53 | 212 | 0.0 | 1.0 | 0.00 | 0.00 | 0.00 | 37 | 1006.6 |
| 20260503224050 | 53 | 234 | 0.0 | 1.0 | 0.00 | 0.00 | 0.00 | 38 | 1006.5 |
| 20260503223551 | 53 | 235 | 0.0 | 0.0 | 0.00 | 0.00 | 0.00 | 38 | 1006.4 |
| 20260503223050 | 53 | 232 | 0.0 | 0.0 | 0.00 | 0.00 | 0.00 | 37 | 1006.4 |
| 20260503222548 | 53 | 243 | 0.0 | 1.0 | 0.00 | 0.00 | 0.00 | 39 | 1006.3 |
| 20260503222048 | 53 | 252 | 0.0 | 1.0 | 0.00 | 0.00 | 0.00 | 39 | 1006.3 |
| 20260503221557 | 53 | 219 | 0.0 | 0.0 | 0.00 | 0.00 | 0.00 | 38 | 1006.2 |
| 20260503221047 | 54 | 262 | 0.0 | 1.0 | 0.00 | 0.00 | 0.00 | 38 | 1006.1 |
| 20260503220547 | 53 | 222 | 0.0 | 1.0 | 0.00 | 0.00 | 0.00 | 39 | 1006.1 |
| 20260503220148 | 53 | 234 | 0.0 | 0.0 | 0.00 | 0.00 | 0.00 | 41 | 1005.9 |
| 20260503215547 | 54 | 221 | 0.0 | 0.0 | 0.00 | 0.00 | 0.00 | 39 | 1006.0 |
| 20260503215044 | 54 | 271 | 0.0 | 2.0 | 0.00 | 0.00 | 0.00 | 40 | 1005.9 |
| 20260503214544 | 54 | 226 | 0.0 | 2.0 | 0.00 | 0.00 | 0.00 | 39 | 1005.8 |
| 20260503214043 | 54 | 79 | 0.0 | 6.0 | 0.00 | 0.00 | 0.00 | 38 | 1005.8 |
| 20260503213545 | 54 | 109 | 0.0 | 0.0 | 0.00 | 0.00 | 0.00 | 39 | 1005.8 |
| 20260503213043 | 54 | 149 | 0.0 | 0.0 | 0.00 | 0.00 | 0.00 | 38 | 1005.7 |
| 20260503212543 | 54 | 207 | 0.0 | 1.0 | 0.00 | 0.00 | 0.00 | 39 | 1005.5 |
| 20260503212042 | 54 | 23 | 0.0 | 1.0 | 0.00 | 0.00 | 0.00 | 40 | 1005.4 |
| 20260503211542 | 54 | 224 | 0.0 | 1.0 | 0.00 | 0.00 | 0.00 | 39 | 1005.5 |
| 20260503211041 | 54 | 235 | 0.0 | 0.0 | 0.00 | 0.00 | 0.00 | 39 | 1005.3 |
| 20260503210540 | 55 | 226 | 0.0 | 0.0 | 0.00 | 0.00 | 0.00 | 39 | 1005.2 |
| 20260503210141 | 55 | 221 | 0.0 | 0.0 | 0.00 | 0.00 | 0.00 | 40 | 1005.1 |
| 20260503205539 | 55 | 228 | 0.0 | 0.0 | 0.00 | 0.00 | 0.00 | 39 | 1005.0 |
| 20260503205038 | 55 | 219 | 0.0 | 1.0 | 0.00 | 0.00 | 0.00 | 38 | 1005.0 |
| 20260503204550 | 55 | 227 | 0.0 | 0.0 | 0.00 | 0.00 | 0.00 | 40 | 1004.9 |
| 20260503204038 | 55 | 231 | 0.0 | 0.0 | 0.00 | 0.00 | 0.00 | 39 | 1004.9 |
| 20260503203537 | 55 | 229 | 0.0 | 0.0 | 0.00 | 0.00 | 0.00 | 39 | 1004.9 |
| 20260503203038 | 55 | 231 | 0.0 | 0.0 | 0.00 | 0.00 | 0.00 | 39 | 1004.7 |
| 20260503202537 | 56 | 307 | 0.0 | 0.0 | 0.00 | 0.00 | 0.00 | 39 | 1004.7 |
| 20260503202037 | 56 | 210 | 0.0 | 2.0 | 0.00 | 0.00 | 0.00 | 40 | 1004.6 |
| 20260503201538 | 56 | 36 | 0.0 | 2.0 | 0.00 | 0.00 | 0.00 | 40 | 1004.6 |
| 20260503201036 | 56 | 230 | 0.0 | 0.0 | 0.00 | 0.00 | 0.00 | 38 | 1004.6 |
| 20260503200536 | 56 | 230 | 0.0 | 0.0 | 0.00 | 0.00 | 0.00 | 39 | 1004.5 |
| 20260503200136 | 56 | 203 | 0.0 | 1.0 | 0.00 | 0.00 | 0.00 | 38 | 1004.4 |
| 20260503195536 | 56 | 244 | 0.0 | 1.0 | 0.00 | 0.00 | 0.00 | 38 | 1004.5 |
| 20260503195035 | 56 | 224 | 0.0 | 4.0 | 0.00 | 0.00 | 0.00 | 40 | 1004.5 |
| 20260503194535 | 56 | 219 | 0.0 | 4.0 | 0.00 | 0.00 | 0.00 | 40 | 1004.5 |
| 20260503194036 | 55 | 221 | 0.0 | 1.0 | 0.00 | 0.00 | 0.00 | 41 | 1004.5 |
| 20260503193533 | 56 | 211 | 0.0 | 0.0 | 0.00 | 0.00 | 0.00 | 42 | 1004.6 |
| 20260503193033 | 55 | 258 | 0.0 | 0.0 | 0.00 | 0.01 | 0.00 | 42 | 1004.6 |
| 20260503192530 | 55 | 221 | 0.0 | 0.0 | 0.00 | 0.01 | 0.00 | 41 | 1004.7 |
| 20260503192030 | 54 | 327 | 0.0 | 0.0 | 0.00 | 0.01 | 0.00 | 43 | 1004.6 |
| 20260503191530 | 53 | 216 | 0.0 | 4.0 | 0.00 | 0.01 | 0.00 | 43 | 1004.6 |
| 20260503191030 | 53 | 328 | 0.0 | 4.0 | 0.00 | 0.01 | 0.00 | 44 | 1004.7 |
| 20260503190530 | 54 | 231 | 0.0 | 1.0 | 0.00 | 0.01 | 0.00 | 44 | 1004.6 |
| 20260503190129 | 54 | 225 | 0.0 | 0.0 | 0.00 | 0.01 | 0.00 | 44 | 1004.6 |
| 20260503185529 | 54 | 203 | 0.0 | 0.0 | 0.00 | 0.01 | 0.00 | 43 | 1004.4 |
| 20260503185030 | 54 | 236 | 0.0 | 0.0 | 0.00 | 0.01 | 0.00 | 44 | 1004.5 |
| 20260503184530 | 54 | 212 | 0.0 | 0.0 | 0.00 | 0.01 | 0.00 | 42 | 1004.6 |
| 20260503184131 | 54 | 214 | 0.0 | 0.0 | 0.00 | 0.01 | 0.00 | 42 | 1004.6 |
| 20260503183527 | 54 | 83 | 0.0 | 0.0 | 0.00 | 0.01 | 0.00 | 46 | 1004.6 |
| 20260503183028 | 54 | 228 | 0.0 | 1.0 | 0.00 | 0.01 | 0.00 | 43 | 1004.6 |
| 20260503182527 | 54 | 210 | 0.0 | 1.0 | 0.00 | 0.01 | 0.00 | 43 | 1004.6 |
| 20260503182026 | 55 | 213 | 0.0 | 1.0 | 0.00 | 0.01 | 0.00 | 45 | 1004.5 |
| 20260503181526 | 55 | 270 | 0.0 | 1.0 | 0.00 | 0.01 | 0.00 | 44 | 1004.5 |
| 20260503181026 | 54 | 100 | 0.0 | 0.0 | 0.00 | 0.01 | 0.00 | 44 | 1004.5 |
| 20260503180528 | 54 | 261 | 0.0 | 0.0 | 0.00 | 0.01 | 0.00 | 47 | 1004.5 |
| 20260503180128 | 54 | 219 | 0.0 | 0.0 | 0.00 | 0.01 | 0.00 | 47 | 1004.6 |
| 20260503175524 | 54 | 230 | 0.0 | 0.0 | 0.00 | 0.01 | 0.00 | 48 | 1004.6 |
| 20260503175026 | 54 | 230 | 0.0 | 0.0 | 0.00 | 0.01 | 0.00 | 47 | 1004.6 |
| 20260503174523 | 54 | 230 | 0.0 | 0.0 | 0.00 | 0.01 | 0.00 | 48 | 1004.6 |
| 20260503174023 | 54 | 233 | 0.0 | 0.0 | 0.00 | 0.01 | 0.00 | 48 | 1004.6 |
| 20260503173522 | 54 | 249 | 0.0 | 0.0 | 0.00 | 0.01 | 0.00 | 47 | 1004.5 |
| 20260503173022 | 54 | 224 | 0.0 | 0.0 | 0.00 | 0.01 | 0.00 | 51 | 1004.5 |
| 20260503172521 | 54 | 255 | 0.0 | 0.0 | 0.00 | 0.01 | 0.00 | 49 | 1004.6 |
| 20260503172020 | 54 | 293 | 0.0 | 0.0 | 0.00 | 0.01 | 0.00 | 50 | 1004.5 |
| 20260503171519 | 53 | 201 | 0.0 | 0.0 | 0.00 | 0.01 | 0.00 | 51 | 1004.7 |
| 20260503171018 | 53 | 210 | 0.0 | 0.0 | 0.00 | 0.01 | 0.00 | 51 | 1004.7 |
| 20260503170517 | 53 | 188 | 0.0 | 0.0 | 0.00 | 0.01 | 0.00 | 52 | 1004.7 |
| 20260503170117 | 52 | 42 | 0.0 | 4.0 | 0.00 | 0.01 | 0.00 | 52 | 1004.7 |
| 20260503160110 | 49 | 220 | 0.0 | 2.0 | 0.00 | 0.01 | 0.00 | 64 | 1004.7 |
| 20260503151006 | 49 | 277 | 0.0 | 0.0 | 0.00 | 0.01 | 0.01 | 66 | 1004.4 |
| 20260503150506 | 48 | 229 | 0.0 | 0.0 | 0.00 | 0.01 | 0.01 | 65 | 1004.4 |
| 20260503150104 | 48 | 244 | 0.0 | 1.0 | 0.00 | 0.01 | 0.01 | 65 | 1004.4 |
| 20260503131059 | 48 | 134 | 0.0 | 0.0 | 0.00 | 0.01 | 0.01 | 65 | 1004.4 |
| 20260503130559 | 48 | 198 | 0.0 | 0.0 | 0.00 | 0.01 | 0.01 | 66 | 1004.5 |
| 20260503130110 | 48 | 4 | 0.0 | 0.0 | 0.00 | 0.01 | 0.01 | 68 | 1004.4 |
| 20260503120120 | 45 | 225 | 0.0 | 0.0 | 0.00 | 0.01 | 0.01 | 68 | 1004.8 |
| 20260503110602 | 0 | 0.0 | 0.0 | 0.00 | 0.01 | 0.01 | 1005.2 | ||
| 20260503081540 | 47 | 234 | 0.0 | 0.0 | 0.00 | 0.01 | 0.01 | 63 | 1005.9 |
| 20260503081023 | 47 | 234 | 0.0 | 0.0 | 0.00 | 0.01 | 0.01 | 63 | 1005.8 |
| 20260503080522 | 46 | 244 | 0.0 | 0.0 | 0.00 | 0.01 | 0.01 | 63 | 1005.9 |
| 20260503072519 | 47 | 248 | 0.0 | 0.0 | 0.00 | 0.01 | 0.01 | 60 | 1006.3 |
| 20260503072018 | 47 | 243 | 0.0 | 0.0 | 0.00 | 0.01 | 0.01 | 60 | 1006.2 |
| 20260503071532 | 47 | 237 | 0.0 | 0.0 | 0.00 | 0.01 | 0.01 | 60 | 1006.1 |
| 20260503071018 | 47 | 342 | 0.0 | 0.0 | 0.00 | 0.01 | 0.01 | 60 | 1006.3 |
| 20260503070516 | 47 | 252 | 0.0 | 0.0 | 0.00 | 0.01 | 0.01 | 60 | 1006.4 |